Regional Weather Roundup
Issued by NWS

Home | Current Version | Previous Version | Graphics & Text | Print | Product List | Glossary Off
Versions: 1 2 3 4 5 6 7 8 9 10 11 12 13 14 15 16 17 18 19 20 21 22 23 24 25 26 27 28 29 30 31 32 33 34 35 36 37 38 39 40 41 42 43 44 45 46 47 48 49 50

000
ASUS43 KMPX 012010
RWRMN
WEATHER ROUNDUP FOR MINNESOTA
NATIONAL WEATHER SERVICE TWIN CITIES/CHANHASSEN MN
300 PM CDT SAT AUG 01 2015


NOTE: "FAIR" INDICATES FEW OR NO CLOUDS BELOW 12,000 FEET WITH NO
SIGNIFICANT WEATHER AND/OR OBSTRUCTIONS TO VISIBILITY. N/A MEANS
CURRENT SKY AND/OR WEATHER CONDITIONS ARE NOT AVAILABLE.

MNZ060>063-068>070-012100-
   Twin Cities Metro

CITY           SKY/WX    TMP DP  RH WIND       PRES   REMARKS
TWIN CITIES    MOSUNNY   85  55  35 NW7       29.91F
ST PAUL        SUNNY     84  54  35 SW6       29.90F
CRYSTAL        SUNNY     85  57  38 W8        29.89F
BLAINE         PTSUNNY   84  52  32 W8        29.90F
LAKEVILLE      MOSUNNY   81  63  54 W3        29.93F
EDEN PRAIRIE   MOSUNNY   84  61  45 SW8       29.91F
SOUTH ST PAUL  SUNNY     83  52  33 W7        29.91F
LAKE ELMO      FAIR      81  57  44 W6        29.92F
$$
MNZ001>005-007-008-013>017-022>024-027-028-012100-
   Northwest Minnesota

CITY           SKY/WX    TMP DP  RH WIND       PRES   REMARKS
BEMIDJI          N/A     79  53  40 S6        29.86F
HALLOCK        SUNNY     82  52  34 W12       29.80F
ROSEAU         SUNNY     81  57  44 W13       29.80F
WARROAD        SUNNY     79  57  47 SW14G21   29.80F
THIEF RVR FALL SUNNY     81  54  39 SW8       29.83F
CROOKSTON      SUNNY     82  57  42 SW7       29.83F
FOSSTON        SUNNY     81  55  41 S8        29.85F
DETROIT LAKES  MOSUNNY   81  54  39 S8        29.88F
MOORHEAD       MOSUNNY   82  57  42 S9        29.83F
PARK RAPIDS    CLOUDY    82  54  37 S13       29.87F
MAHNOMEN       CLOUDY    77  56  48 SW7       29.85F
$$
MNZ006-009>011-018-025>026-012100-
   North Central Minnesota

CITY           SKY/WX    TMP DP  RH WIND       PRES   REMARKS
BAUDETTE       SUNNY     80  51  36 W12G21    29.80F
FLAG ISLAND    MOSUNNY   79  46  31 SW20      29.76F
INTL FALLS     MOSUNNY   79  50  36 W13G21    29.80F
WASKISH        SUNNY     79  57  47 SW10      29.83F
BIG FORK       SUNNY     81  52  36 W9        29.85F
LONGVILLE      SUNNY     81  54  39 W10       29.86F
GRAND RAPIDS   SUNNY     79  50  36 W10G17    29.88S
CRANE LAKE     MOSUNNY   75  46  35 W7        29.83F
ORR            SUNNY     81  45  28 SW10      29.81F
COOK           MOSUNNY   79  48  34 W12G17    29.84F
WALKER         FAIR      80  53  38 W6        29.86F
$$
MNZ012-019>021-037-012100-
   Northeast Minnesota

CITY           SKY/WX    TMP DP  RH WIND       PRES   REMARKS
DULUTH         MOSUNNY   81  52  36 W16       29.86F
ELY            MOSUNNY   77  45  31 W9G26     29.83F
HIBBING        SUNNY     80  49  33 W10G16    29.86F
EVELETH        MOSUNNY   81  45  28 W12G18    29.86F
DULUTH HARBOR  SUNNY     82  54  36 W8G18     29.84F
TWO HARBORS    MOSUNNY   82  55  39 W10G17    29.82F
SILVER BAY     MOSUNNY   81  46  30 W5        29.82F
GRAND MARAIS     N/A     57  48  72 W7        29.79F
G MARAIS ARPRT SUNNY     73  45  35 W9        29.83F
$$
MNZ029>031-032-039>041-046>048-054>057-064-012100-
   West Central Minnesota

CITY           SKY/WX    TMP DP  RH WIND       PRES   REMARKS
FERGUS FALLS   MOSUNNY   82  59  44 S10       29.84F
WHEATON        MOSUNNY   79  64  61 SE14      29.84F
MORRIS         MOSUNNY   81  66  61 SE15      29.85F
ALEXANDRIA     MOSUNNY   82  60  47 S12       29.90F
ELBOW LAKE     FAIR      81  62  52 SE13      29.86F
WADENA         MOSUNNY   84  54  34 S6        29.86F
GLENWOOD       MOSUNNY   82  61  47 S10       29.90F
APPLETON       MOSUNNY   84  64  51 SE8G16    29.85F
BENSON         MOSUNNY   82  64  54 S12       29.88F
ORTONVILLE     SUNNY     82  68  61 SE13G18   29.84F
MADISON        MOSUNNY   84  72  65 SE8       29.85F
WILLMAR        FAIR      82  64  54 S9        29.90F
$$
MNZ033>034-036-042>043-049>051-058-059-012100-
   Central Minnesota

CITY           SKY/WX    TMP DP  RH WIND       PRES   REMARKS
ST CLOUD       MOSUNNY   85  55  35 S8        29.90F
SAUK CENTRE    FAIR      81  61  51 SE7       29.90F
PAYNESVILLE    MOSUNNY   79  61  54 SE8       29.91F
AITKIN         SUNNY     82  57  42 S6        29.86F
PINE RIVER     SUNNY     81  55  41 SW3       29.91F
BRAINERD       MOSUNNY   83  52  34 SW10      29.88F
STAPLES        SUNNY     82  54  36 SW7       29.88F
LONG PRAIRIE   LGT RAIN  77  59  53 S6        29.90
LITTLE FALLS   SUNNY     81  50  34 SW5       29.90F
LITCHFIELD     MOSUNNY   84  64  51 CALM      29.91F
BUFFALO          N/A     82  57  42 SW7       29.93F
MAPLE LAKE     MOSUNNY   81  63  54 S5        29.93S
$$
MNZ037-044-045-052-053-012100-
   East Central Minnesota

CITY           SKY/WX    TMP DP  RH WIND       PRES   REMARKS
PRINCETON      SUNNY     84  57  39 SW7       29.90F
MORA           SUNNY     79  52  38 W5        29.90F
CAMBRIDGE      SUNNY     84  61  45 SW7       29.88F
RUSH CITY      SUNNY     81  54  39 W8        29.90F
MOOSE LAKE     MOSUNNY   79  52  38 SW7       29.86F
HINCKLEY       FAIR      81  54  39 W8G16     29.89F
CLOQUET        SUNNY     79  45  29 W10       29.87F
MCGREGOR       PTSUNNY   79  50  36 W7        29.88F
$$
MNZ071>073-080-081-089-090-097-098-012100-
   Southwest Minnesota

CITY           SKY/WX    TMP DP  RH WIND       PRES   REMARKS
MONTEVIDEO     MOSUNNY   86  70  58 S12       29.89F HX  90
GRANITE FALLS  MOSUNNY   82  73  73 SE9       29.89F
CANBY          MOSUNNY   85  61  44 SW8G17    29.88F
MARSHALL       MOSUNNY   84  61  45 SW14      29.92F
REDWOOD FALLS  SUNNY     85  71  63 SE10      29.90F HX  90
OLIVIA         SUNNY     81  63  54 SE6       29.90F
PIPESTONE      MOSUNNY   81  63  54 SW9G17    29.96S
WINDOM         SUNNY     88  64  45 SW13      29.94F
WORTHINGTON    PTSUNNY   81  63  54 SW15G21   29.96F
JACKSON        MOSUNNY   86  61  42 SW14      29.96F
TRACY          MOSUNNY   82  64  54 W9        29.94S
SLAYTON        MOSUNNY   83  60  46 SW15      29.97R
$$
MNZ065>067-074>077-082>085-091>093-012100-
   South Central Minnesota

CITY           SKY/WX    TMP DP  RH WIND       PRES   REMARKS
MANKATO        MOSUNNY   81  63  54 SW5       29.93F
NEW ULM        PTSUNNY   82  66  57 S3        29.92F
ST JAMES       MOSUNNY   88  64  45 SW9G17    29.94F
FAIRMONT       MOSUNNY   84  63  48 SW8       29.95F
GLENCOE        MOSUNNY   83  68  60 S7        29.92F
FARIBAULT      MOSUNNY   82  66  57 SW5       29.94F
OWATONNA       MOSUNNY   82  64  54 W7        29.95F
WASECA         MOSUNNY   82  68  61 SW6       29.96F
ALBERT LEA     SUNNY     84  64  51 W7        29.96F
$$
MNZ078>079-086>088-094>096-012100-
   Southeast Minnesota

CITY           SKY/WX    TMP DP  RH WIND       PRES   REMARKS
ROCHESTER      MOSUNNY   81  67  62 W5        29.96F
RED WING       SUNNY     86  55  35 W7        29.90F
STANTON        MOSUNNY   83  62  48 W3        29.92F
DODGE CENTER   SUNNY     81  63  54 W6        29.95F
WINONA         SUNNY     82  61  47 W7        29.92F
AUSTIN         SUNNY     84  64  51 W7        29.96F
PRESTON        SUNNY     81  63  53 W8        29.97F
$$
ABBREVIATIONS USED IN REMARKS
   TC - TEMPERATURES IN CELSIUS
  WCI - WIND CHILL INDEX
   HX - HEAT INDEX
  VSB - VISIBILITY
$$


USA.gov is the U.S. government's official web portal to all federal, state and local government web resources and services.